Location: Alto Pass Reservoir
(37.5801°N, 89.3084°W)
Time: 07:16:43
(UTC+00:00)

Cosmos 1666 - Pass Details

Date: 06 July 2022
Orbit: 489 x 511 km, 82.5° (Epoch: 07 August)

Event Time Altitude Azimuth Distance (km) Brightness Sun altitude
Exits shadow 07:55:50 16° 109° (ESE) 1,377 4.9 -24.1°
Maximum altitude 07:56:53 18° 89° (E) 1,300 5.0 -24.0°
Drops below altitude 10° 07:59:25 10° 46° (NE) 1,704 6.3 -23.7°
Sets 08:02:02 0° 26° (NNE) 2,588 7.7 -23.5°
